TAM3189 SBBE-SBEG

Flight info

Callsign TAM3189
Flight time 1h 43m
Altitude 36000
Route ILMAN UZ81 KULAB
Aircraft A320/M-SDE3FGHIRWY/LB1

Departure

Time 2026-05-04 23:00
Airport Val de Cans/Júlio Cezar Ribeiro International Airport (SBBE)

Arrival

Time 2026-05-05 00:43
Airport Eduardo Gomes International Airport (SBEG)
Time Latitude Longitude Altitude Speed Heading
2026-05-04 22:47 -1.38960 -48.47887 43 ft 0 kts 275°
2026-05-04 22:53 -1.38962 -48.47867 42 ft 4 kts 279°
2026-05-04 22:53 -1.38968 -48.47841 43 ft 4 kts 294°
2026-05-04 22:53 -1.38982 -48.47822 43 ft 4 kts 341°
2026-05-04 22:54 -1.38991 -48.47820 43 ft 0 kts
2026-05-04 22:55 -1.38962 -48.47817 43 ft 10 kts
2026-05-04 22:56 -1.38878 -48.47810 43 ft 13 kts
2026-05-04 22:56 -1.38778 -48.47801 43 ft 15 kts
2026-05-04 22:56 -1.38703 -48.47795 43 ft 12 kts
2026-05-04 22:56 -1.38669 -48.47860 43 ft 13 kts 270°
2026-05-04 22:57 -1.38671 -48.47948 43 ft 11 kts 268°
2026-05-04 22:57 -1.38673 -48.48028 44 ft 12 kts 269°
2026-05-04 22:57 -1.38674 -48.48120 44 ft 14 kts 269°
2026-05-04 22:57 -1.38681 -48.48220 44 ft 12 kts 252°
2026-05-04 22:58 -1.38739 -48.48288 44 ft 14 kts 226°
2026-05-04 22:58 -1.38802 -48.48352 43 ft 11 kts 231°
2026-05-04 22:58 -1.38816 -48.48429 43 ft 8 kts 271°
2026-05-04 22:58 -1.38801 -48.48486 42 ft 6 kts 322°
2026-05-04 22:59 -1.38776 -48.48473 42 ft 4 kts 45°
2026-05-04 22:59 -1.38766 -48.48462 41 ft 15 kts 45°
2026-05-04 22:59 -1.38514 -48.48208 43 ft 85 kts 45°
2026-05-04 22:59 -1.37974 -48.47663 40 ft 136 kts 45°
2026-05-04 23:00 -1.37241 -48.46926 326 ft 151 kts 46°
2026-05-04 23:00 -1.36503 -48.46183 886 ft 151 kts 46°
2026-05-04 23:00 -1.35756 -48.45430 1389 ft 159 kts 39°
2026-05-04 23:00 -1.34642 -48.45097 1635 ft 185 kts 356°
2026-05-04 23:01 -1.33429 -48.45691 1881 ft 213 kts 313°
2026-05-04 23:01 -1.32857 -48.47127 2141 ft 240 kts 272°
2026-05-04 23:01 -1.33031 -48.48869 2537 ft 264 kts 257°
2026-05-04 23:01 -1.33516 -48.50687 3225 ft 274 kts 252°
2026-05-04 23:02 -1.34096 -48.52524 4043 ft 279 kts 251°
2026-05-04 23:02 -1.34688 -48.54397 4892 ft 284 kts 252°
2026-05-04 23:02 -1.35256 -48.56275 5716 ft 288 kts 252°
2026-05-04 23:02 -1.36032 -48.58124 6507 ft 290 kts 238°
2026-05-04 23:03 -1.37248 -48.59741 7244 ft 293 kts 224°
2026-05-04 23:03 -1.38692 -48.61192 7996 ft 296 kts 223°
2026-05-04 23:03 -1.40150 -48.62666 8739 ft 300 kts 223°
2026-05-04 23:03 -1.41623 -48.64157 9476 ft 303 kts 223°
2026-05-04 23:04 -1.43084 -48.65711 10153 ft 309 kts 226°
2026-05-04 23:04 -1.44527 -48.67410 10343 ft 333 kts 234°
2026-05-04 23:04 -1.45656 -48.69506 10610 ft 350 kts 248°
2026-05-04 23:04 -1.46308 -48.71872 11137 ft 357 kts 261°
2026-05-04 23:05 -1.46534 -48.74354 11737 ft 360 kts 266°
2026-05-04 23:05 -1.46712 -48.76863 12354 ft 363 kts 266°
2026-05-04 23:05 -1.46898 -48.79389 12965 ft 366 kts 266°
2026-05-04 23:05 -1.47088 -48.81937 13570 ft 369 kts 266°
2026-05-04 23:06 -1.47277 -48.84507 14124 ft 372 kts 266°
2026-05-04 23:06 -1.47464 -48.87102 14652 ft 375 kts 266°
2026-05-04 23:06 -1.47651 -48.89713 15173 ft 378 kts 266°
2026-05-04 23:06 -1.47837 -48.92338 15706 ft 381 kts 266°
2026-05-04 23:07 -1.48025 -48.94991 16211 ft 383 kts 266°
2026-05-04 23:07 -1.48214 -48.97630 16711 ft 386 kts 266°
2026-05-04 23:07 -1.48408 -49.00323 17225 ft 389 kts 265°
2026-05-04 23:07 -1.48608 -49.03038 17731 ft 392 kts 265°
2026-05-04 23:08 -1.48808 -49.05767 18239 ft 395 kts 265°
2026-05-04 23:08 -1.49005 -49.08510 18682 ft 397 kts 266°
2026-05-04 23:08 -1.49199 -49.11275 19138 ft 399 kts 266°
2026-05-04 23:08 -1.49439 -49.14050 19593 ft 402 kts 261°
2026-05-04 23:09 -1.49884 -49.16775 20041 ft 404 kts 260°
2026-05-04 23:09 -1.50344 -49.19554 20498 ft 405 kts 259°
2026-05-04 23:09 -1.50811 -49.22342 20926 ft 408 kts 260°
2026-05-04 23:09 -1.51284 -49.25155 21387 ft 411 kts 260°
2026-05-04 23:10 -1.51758 -49.27988 21834 ft 414 kts 259°
2026-05-04 23:10 -1.52230 -49.30835 22277 ft 416 kts 260°
2026-05-04 23:10 -1.52702 -49.33695 22726 ft 419 kts 259°
2026-05-04 23:10 -1.53180 -49.36585 23167 ft 421 kts 259°
2026-05-04 23:11 -1.53659 -49.39484 23587 ft 424 kts 259°
2026-05-04 23:11 -1.54142 -49.42404 23944 ft 426 kts 259°
2026-05-04 23:11 -1.54622 -49.45297 24277 ft 428 kts 259°
2026-05-04 23:11 -1.55110 -49.48239 24637 ft 429 kts 259°
2026-05-04 23:12 -1.55601 -49.51188 24975 ft 431 kts 259°
2026-05-04 23:12 -1.56095 -49.54160 25320 ft 433 kts 259°
2026-05-04 23:12 -1.56587 -49.57133 25647 ft 435 kts 259°
2026-05-04 23:12 -1.57081 -49.60131 25976 ft 437 kts 259°
2026-05-04 23:13 -1.57578 -49.63132 26300 ft 439 kts 259°
2026-05-04 23:13 -1.58070 -49.66108 26617 ft 440 kts 259°
2026-05-04 23:13 -1.58573 -49.69132 26939 ft 442 kts 259°
2026-05-04 23:13 -1.59084 -49.72177 27246 ft 444 kts 259°
2026-05-04 23:14 -1.59593 -49.75223 27547 ft 445 kts 259°
2026-05-04 23:14 -1.60101 -49.78283 27837 ft 447 kts 259°
2026-05-04 23:14 -1.60610 -49.81355 28128 ft 449 kts 259°
2026-05-04 23:14 -1.61121 -49.84442 28418 ft 451 kts 259°
2026-05-04 23:15 -1.61635 -49.87534 28710 ft 452 kts 259°
2026-05-04 23:15 -1.62152 -49.90646 29017 ft 454 kts 259°
2026-05-04 23:15 -1.62670 -49.93769 29298 ft 456 kts 259°
2026-05-04 23:15 -1.63188 -49.96912 29588 ft 458 kts 259°
2026-05-04 23:16 -1.63704 -50.00028 29872 ft 460 kts 259°
2026-05-04 23:16 -1.64227 -50.03197 30141 ft 462 kts 260°
2026-05-04 23:16 -1.64750 -50.06374 30382 ft 464 kts 259°
2026-05-04 23:16 -1.65277 -50.09556 30626 ft 465 kts 259°
2026-05-04 23:17 -1.65810 -50.12747 30865 ft 466 kts 259°
2026-05-04 23:17 -1.66343 -50.15943 31170 ft 465 kts 259°
2026-05-04 23:17 -1.66873 -50.19134 31529 ft 464 kts 259°
2026-05-04 23:17 -1.67397 -50.22311 31886 ft 462 kts 259°
2026-05-04 23:18 -1.67919 -50.25485 32253 ft 461 kts 259°
2026-05-04 23:18 -1.68440 -50.28646 32623 ft 460 kts 259°
2026-05-04 23:18 -1.68953 -50.31755 32995 ft 458 kts 259°
2026-05-04 23:18 -1.69476 -50.34897 33374 ft 457 kts 259°
2026-05-04 23:19 -1.69999 -50.38026 33759 ft 456 kts 259°
2026-05-04 23:19 -1.70517 -50.41147 34101 ft 454 kts 259°
2026-05-04 23:19 -1.71029 -50.44257 34403 ft 453 kts 259°
2026-05-04 23:19 -1.71539 -50.47365 34686 ft 453 kts 259°
2026-05-04 23:20 -1.72047 -50.50466 34969 ft 452 kts 259°
2026-05-04 23:20 -1.72557 -50.53565 35251 ft 451 kts 259°
2026-05-04 23:20 -1.73069 -50.56665 35529 ft 451 kts 259°
2026-05-04 23:20 -1.73583 -50.59750 35798 ft 450 kts 259°
2026-05-04 23:21 -1.74099 -50.62842 35941 ft 450 kts 259°
2026-05-04 23:21 -1.74610 -50.65927 35973 ft 450 kts 259°
2026-05-04 23:21 -1.75454 -50.71059 35972 ft 450 kts 259°
2026-05-04 23:22 -1.76637 -50.78242 35970 ft 450 kts 259°
2026-05-04 23:22 -1.77661 -50.84431 35970 ft 450 kts 259°
2026-05-04 23:23 -1.78515 -50.89559 35972 ft 450 kts 259°
2026-05-04 23:23 -1.79537 -50.95728 35972 ft 449 kts 259°
2026-05-04 23:24 -1.80556 -51.01893 35970 ft 458 kts 259°
2026-05-04 23:24 -1.81599 -51.08270 35978 ft 469 kts 259°
2026-05-04 23:25 -1.82668 -51.14776 35974 ft 477 kts 259°
2026-05-04 23:25 -1.83759 -51.21327 35974 ft 477 kts 259°
2026-05-04 23:26 -1.84848 -51.27882 35969 ft 477 kts 259°
2026-05-04 23:26 -1.85915 -51.34384 35958 ft 477 kts 259°
2026-05-04 23:27 -1.86991 -51.40944 35947 ft 478 kts 259°
2026-05-04 23:27 -1.88069 -51.47526 35974 ft 479 kts 259°
2026-05-04 23:28 -1.89150 -51.54086 35985 ft 478 kts 259°
2026-05-04 23:28 -1.90235 -51.60649 35984 ft 478 kts 260°
2026-05-04 23:29 -1.91325 -51.67215 35970 ft 479 kts 259°
2026-05-04 23:29 -1.92405 -51.73811 35974 ft 480 kts 260°
2026-05-04 23:30 -1.93491 -51.80411 35979 ft 481 kts 260°
2026-05-04 23:30 -1.94586 -51.86997 35980 ft 485 kts 259°
2026-05-04 23:31 -1.95686 -51.93653 35997 ft 485 kts 260°
2026-05-04 23:31 -1.96787 -52.00273 36004 ft 480 kts 259°
2026-05-04 23:32 -1.97866 -52.06827 35997 ft 476 kts 259°
2026-05-04 23:32 -1.98924 -52.13364 36009 ft 479 kts 260°
2026-05-04 23:33 -1.99978 -52.19969 36018 ft 483 kts 260°
2026-05-04 23:33 -2.01071 -52.26590 36011 ft 485 kts 259°
2026-05-04 23:34 -2.02176 -52.33237 36004 ft 483 kts 260°
2026-05-04 23:34 -2.03275 -52.39849 36007 ft 482 kts 260°
2026-05-04 23:35 -2.04358 -52.46417 36009 ft 481 kts 260°
2026-05-04 23:35 -2.05433 -52.53015 35998 ft 480 kts 260°
2026-05-04 23:36 -2.06493 -52.59610 36000 ft 481 kts 260°
2026-05-04 23:36 -2.07557 -52.66220 35992 ft 480 kts 261°
2026-05-04 23:37 -2.08635 -52.72821 35978 ft 482 kts 260°
2026-05-04 23:37 -2.09706 -52.79450 35992 ft 482 kts 261°
2026-05-04 23:38 -2.10766 -52.86029 35986 ft 481 kts 260°
2026-05-04 23:38 -2.11902 -52.92916 36002 ft 479 kts 260°
2026-05-04 23:39 -2.12983 -52.99474 35987 ft 484 kts 260°
2026-05-04 23:39 -2.14063 -53.06127 35991 ft 485 kts 260°
2026-05-04 23:40 -2.15122 -53.12747 36004 ft 477 kts 260°
2026-05-04 23:40 -2.16197 -53.19340 35996 ft 483 kts 260°
2026-05-04 23:41 -2.17278 -53.25947 35993 ft 480 kts 261°
2026-05-04 23:41 -2.18364 -53.32496 35994 ft 480 kts 260°
2026-05-04 23:42 -2.19448 -53.39113 36003 ft 479 kts 260°
2026-05-04 23:42 -2.20520 -53.45696 35991 ft 478 kts 261°
2026-05-04 23:43 -2.21580 -53.52240 35974 ft 478 kts 260°
2026-05-04 23:43 -2.22638 -53.58760 36002 ft 478 kts 260°
2026-05-04 23:44 -2.23702 -53.65335 36002 ft 480 kts 260°
2026-05-04 23:44 -2.24765 -53.71922 35984 ft 479 kts 261°
2026-05-04 23:45 -2.25841 -53.78474 35991 ft 476 kts 261°
2026-05-04 23:45 -2.26905 -53.85026 35971 ft 478 kts 260°
2026-05-04 23:46 -2.27991 -53.91585 35976 ft 477 kts 260°
2026-05-04 23:46 -2.29061 -53.98160 35981 ft 480 kts 261°
2026-05-04 23:47 -2.30115 -54.04769 35982 ft 482 kts 261°
2026-05-04 23:47 -2.31198 -54.11379 35998 ft 481 kts 260°
2026-05-04 23:48 -2.32287 -54.17987 35992 ft 482 kts 260°
2026-05-04 23:48 -2.33367 -54.24557 35992 ft 480 kts 260°
2026-05-04 23:49 -2.34429 -54.31140 35992 ft 480 kts 260°
2026-05-04 23:49 -2.35481 -54.37729 35981 ft 482 kts 260°
2026-05-04 23:50 -2.36561 -54.44343 35990 ft 485 kts 260°
2026-05-04 23:50 -2.37642 -54.50992 35990 ft 484 kts 260°
2026-05-04 23:51 -2.38630 -54.57652 35970 ft 482 kts 262°
2026-05-04 23:51 -2.39506 -54.64277 35959 ft 486 kts 262°
2026-05-04 23:52 -2.40402 -54.70998 35966 ft 486 kts 262°
2026-05-04 23:52 -2.41325 -54.77681 35958 ft 484 kts 261°
2026-05-04 23:53 -2.42256 -54.84362 35972 ft 484 kts 261°
2026-05-04 23:53 -2.43181 -54.90997 35966 ft 485 kts 261°
2026-05-04 23:54 -2.44098 -54.97669 35971 ft 483 kts 261°
2026-05-04 23:54 -2.45015 -55.04277 35960 ft 479 kts 261°
2026-05-04 23:55 -2.45936 -55.10879 35963 ft 479 kts 261°
2026-05-04 23:56 -2.47282 -55.20775 35968 ft 482 kts 261°
2026-05-04 23:56 -2.48204 -55.27394 35958 ft 478 kts 261°
2026-05-04 23:57 -2.49114 -55.33994 35962 ft 479 kts 261°
2026-05-04 23:57 -2.49869 -55.39488 35961 ft 479 kts 261°
2026-05-04 23:58 -2.50687 -55.46114 35961 ft 481 kts 262°
2026-05-04 23:58 -2.51423 -55.52768 35963 ft 480 kts 263°
2026-05-04 23:59 -2.52146 -55.59374 35985 ft 480 kts 263°
2026-05-04 23:59 -2.52897 -55.66032 35994 ft 482 kts 263°
2026-05-05 00:00 -2.53675 -55.72689 35996 ft 482 kts 262°
2026-05-05 00:00 -2.54445 -55.79327 36002 ft 480 kts 262°
2026-05-05 00:01 -2.55207 -55.85956 35988 ft 480 kts 262°
2026-05-05 00:01 -2.55970 -55.92586 35988 ft 479 kts 263°
2026-05-05 00:02 -2.56726 -55.99183 35982 ft 478 kts 262°
2026-05-05 00:02 -2.57491 -56.05785 35957 ft 479 kts 263°
2026-05-05 00:03 -2.58255 -56.12437 35980 ft 480 kts 263°
2026-05-05 00:03 -2.59008 -56.19066 35967 ft 479 kts 263°
2026-05-05 00:04 -2.59763 -56.25682 35969 ft 482 kts 263°
2026-05-05 00:04 -2.60528 -56.32338 35978 ft 479 kts 263°
2026-05-05 00:04 -2.60907 -56.35602 35963 ft 465 kts 263°
2026-05-05 00:05 -2.61280 -56.38785 35968 ft 458 kts 263°
2026-05-05 00:05 -2.62010 -56.45083 35971 ft 456 kts 262°
2026-05-05 00:06 -2.62728 -56.51440 35969 ft 465 kts 263°
2026-05-05 00:06 -2.63479 -56.57903 35969 ft 475 kts 263°
2026-05-05 00:07 -2.64246 -56.64485 35963 ft 477 kts 263°
2026-05-05 00:07 -2.65004 -56.71090 35953 ft 478 kts 263°
2026-05-05 00:08 -2.65768 -56.77699 35966 ft 478 kts 263°
2026-05-05 00:08 -2.66523 -56.84307 35968 ft 478 kts 263°
2026-05-05 00:09 -2.67278 -56.90908 35969 ft 478 kts 263°
2026-05-05 00:09 -2.68035 -56.97511 35970 ft 478 kts 263°
2026-05-05 00:10 -2.68799 -57.04122 35972 ft 478 kts 263°
2026-05-05 00:10 -2.69566 -57.10737 35978 ft 479 kts 263°
2026-05-05 00:11 -2.70330 -57.17361 35980 ft 479 kts 263°
2026-05-05 00:11 -2.71079 -57.23954 35982 ft 479 kts 263°
2026-05-05 00:12 -2.71832 -57.30582 35983 ft 479 kts 263°
2026-05-05 00:12 -2.72597 -57.37222 35983 ft 479 kts 263°
2026-05-05 00:13 -2.73365 -57.43803 35981 ft 479 kts 263°
2026-05-05 00:13 -2.74123 -57.50434 35981 ft 479 kts 263°
2026-05-05 00:14 -2.74876 -57.57084 35979 ft 479 kts 263°
2026-05-05 00:14 -2.75631 -57.63669 35980 ft 479 kts 263°
2026-05-05 00:15 -2.76393 -57.70308 35982 ft 480 kts 263°
2026-05-05 00:15 -2.77156 -57.76949 35983 ft 480 kts 263°
2026-05-05 00:16 -2.77913 -57.83582 35982 ft 480 kts 263°
2026-05-05 00:16 -2.78664 -57.90194 35983 ft 481 kts 263°
2026-05-05 00:17 -2.79419 -57.96852 35984 ft 481 kts 263°
2026-05-05 00:17 -2.80178 -58.03500 35985 ft 481 kts 263°
2026-05-05 00:18 -2.80938 -58.10161 35990 ft 481 kts 263°
2026-05-05 00:18 -2.81691 -58.16743 35966 ft 472 kts 263°
2026-05-05 00:18 -2.82062 -58.19963 35971 ft 461 kts 263°
2026-05-05 00:19 -2.82429 -58.23146 35972 ft 458 kts 263°
2026-05-05 00:19 -2.83157 -58.29474 35975 ft 456 kts 263°
2026-05-05 00:20 -2.83864 -58.35745 35752 ft 455 kts 263°
2026-05-05 00:20 -2.84218 -58.38888 35517 ft 453 kts 263°
2026-05-05 00:20 -2.84574 -58.42009 35140 ft 450 kts 263°
2026-05-05 00:20 -2.84929 -58.45119 34647 ft 451 kts 263°
2026-05-05 00:21 -2.85287 -58.48237 34167 ft 451 kts 263°
2026-05-05 00:21 -2.85612 -58.51359 33636 ft 451 kts 264°
2026-05-05 00:21 -2.85837 -58.54497 33147 ft 450 kts 266°
2026-05-05 00:21 -2.85985 -58.57621 32660 ft 449 kts 267°
2026-05-05 00:22 -2.86093 -58.60748 32165 ft 447 kts 268°
2026-05-05 00:22 -2.86188 -58.63811 31695 ft 446 kts 268°
2026-05-05 00:22 -2.86296 -58.66905 31216 ft 444 kts 267°
2026-05-05 00:22 -2.86427 -58.69984 30755 ft 442 kts 267°
2026-05-05 00:23 -2.86577 -58.73061 30287 ft 441 kts 267°
2026-05-05 00:23 -2.86733 -58.76125 29804 ft 439 kts 267°
2026-05-05 00:23 -2.86890 -58.79164 29350 ft 435 kts 267°
2026-05-05 00:23 -2.87048 -58.82181 28914 ft 432 kts 267°
2026-05-05 00:24 -2.87203 -58.85168 28494 ft 429 kts 267°
2026-05-05 00:24 -2.87350 -58.88101 28073 ft 426 kts 267°
2026-05-05 00:24 -2.87493 -58.91063 27646 ft 424 kts 267°
2026-05-05 00:24 -2.87632 -58.94006 27224 ft 422 kts 267°
2026-05-05 00:25 -2.87769 -58.96936 26791 ft 421 kts 267°
2026-05-05 00:25 -2.87906 -58.99868 26359 ft 420 kts 267°
2026-05-05 00:25 -2.88041 -59.02793 25914 ft 420 kts 267°
2026-05-05 00:25 -2.88182 -59.05715 25456 ft 421 kts 267°
2026-05-05 00:26 -2.88325 -59.08596 25134 ft 417 kts 267°
2026-05-05 00:26 -2.88472 -59.11518 24654 ft 417 kts 267°
2026-05-05 00:26 -2.88614 -59.14404 24116 ft 417 kts 267°
2026-05-05 00:26 -2.88753 -59.17272 23657 ft 410 kts 267°
2026-05-05 00:27 -2.88890 -59.20117 22996 ft 408 kts 267°
2026-05-05 00:27 -2.89026 -59.22905 22612 ft 404 kts 267°
2026-05-05 00:27 -2.89164 -59.25712 22129 ft 403 kts 267°
2026-05-05 00:27 -2.89301 -59.28508 21725 ft 399 kts 267°
2026-05-05 00:28 -2.89436 -59.31281 21282 ft 396 kts 267°
2026-05-05 00:28 -2.89568 -59.34032 20831 ft 394 kts 267°
2026-05-05 00:28 -2.89699 -59.36751 20330 ft 389 kts 267°
2026-05-05 00:28 -2.89827 -59.39432 19718 ft 384 kts 267°
2026-05-05 00:29 -2.89953 -59.42078 19368 ft 379 kts 267°
2026-05-05 00:29 -2.90078 -59.44681 18933 ft 378 kts 268°
2026-05-05 00:29 -2.90203 -59.47310 18494 ft 378 kts 268°
2026-05-05 00:29 -2.90329 -59.49938 18004 ft 377 kts 268°
2026-05-05 00:30 -2.90455 -59.52553 17545 ft 374 kts 268°
2026-05-05 00:30 -2.90580 -59.55146 17110 ft 371 kts 268°
2026-05-05 00:30 -2.90704 -59.57712 16674 ft 368 kts 268°
2026-05-05 00:30 -2.90826 -59.60262 16237 ft 366 kts 268°
2026-05-05 00:31 -2.90947 -59.62792 15807 ft 363 kts 268°
2026-05-05 00:31 -2.91068 -59.65305 15427 ft 359 kts 268°
2026-05-05 00:31 -2.91186 -59.67798 14965 ft 359 kts 268°
2026-05-05 00:31 -2.91299 -59.70247 14572 ft 356 kts 268°
2026-05-05 00:32 -2.91412 -59.72712 14205 ft 352 kts 268°
2026-05-05 00:32 -2.91528 -59.75166 13808 ft 350 kts 268°
2026-05-05 00:32 -2.91645 -59.77597 13355 ft 349 kts 268°
2026-05-05 00:32 -2.91762 -59.80024 12923 ft 347 kts 268°
2026-05-05 00:33 -2.91875 -59.82428 12527 ft 344 kts 268°
2026-05-05 00:33 -2.91985 -59.84778 12144 ft 340 kts 268°
2026-05-05 00:33 -2.92096 -59.87118 11692 ft 333 kts 268°
2026-05-05 00:33 -2.92207 -59.89410 11215 ft 327 kts 268°
2026-05-05 00:34 -2.92314 -59.91668 10755 ft 324 kts 268°
2026-05-05 00:34 -2.92424 -59.93886 10424 ft 317 kts 267°
2026-05-05 00:34 -2.92527 -59.96058 10057 ft 309 kts 268°
2026-05-05 00:34 -2.92625 -59.98190 9668 ft 302 kts 268°
2026-05-05 00:35 -2.92719 -60.00249 9275 ft 296 kts 268°
2026-05-05 00:35 -2.92813 -60.02289 8934 ft 289 kts 267°
2026-05-05 00:35 -2.92904 -60.04284 8585 ft 284 kts 267°
2026-05-05 00:35 -2.92993 -60.06217 8231 ft 279 kts 267°
2026-05-05 00:36 -2.93084 -60.08143 7873 ft 274 kts 267°
2026-05-05 00:36 -2.93174 -60.10036 7536 ft 270 kts 267°
2026-05-05 00:36 -2.93264 -60.11894 7219 ft 264 kts 267°
2026-05-05 00:36 -2.93351 -60.13726 6902 ft 263 kts 267°
2026-05-05 00:37 -2.93438 -60.15565 6565 ft 264 kts 267°
2026-05-05 00:37 -2.93526 -60.17407 6213 ft 265 kts 267°
2026-05-05 00:37 -2.93610 -60.19239 5841 ft 261 kts 267°
2026-05-05 00:37 -2.93883 -60.21009 5356 ft 257 kts 245°
2026-05-05 00:38 -2.94968 -60.22343 4888 ft 250 kts 209°
2026-05-05 00:38 -2.96565 -60.22822 4603 ft 235 kts 178°
2026-05-05 00:38 -2.98169 -60.22832 4457 ft 227 kts 176°
2026-05-05 00:38 -2.99739 -60.22835 4113 ft 227 kts 177°
2026-05-05 00:39 -3.01294 -60.22684 3640 ft 223 kts 159°
2026-05-05 00:39 -3.02627 -60.21945 3196 ft 216 kts 133°
2026-05-05 00:39 -3.03492 -60.20771 2964 ft 207 kts 111°
2026-05-05 00:39 -3.03825 -60.19416 2758 ft 196 kts 91°
2026-05-05 00:40 -3.03834 -60.18075 2492 ft 188 kts 89°
2026-05-05 00:40 -3.03835 -60.16814 2262 ft 176 kts 89°
2026-05-05 00:40 -3.03836 -60.15612 2047 ft 166 kts 89°
2026-05-05 00:40 -3.03838 -60.14474 1831 ft 162 kts 89°
2026-05-05 00:41 -3.03840 -60.13376 1622 ft 150 kts 89°
2026-05-05 00:41 -3.03843 -60.12374 1433 ft 140 kts 89°
2026-05-05 00:41 -3.03846 -60.11407 1255 ft 137 kts 89°
2026-05-05 00:41 -3.03856 -60.10451 1090 ft 137 kts 91°
2026-05-05 00:42 -3.03854 -60.09493 915 ft 139 kts 90°
2026-05-05 00:42 -3.03854 -60.08527 775 ft 140 kts 90°
2026-05-05 00:42 -3.03857 -60.07551 580 ft 141 kts 90°
2026-05-05 00:42 -3.03856 -60.06577 387 ft 139 kts 90°
2026-05-05 00:43 -3.03859 -60.05633 270 ft 129 kts 90°
2026-05-05 00:43 -3.03860 -60.04892 268 ft 82 kts 90°
2026-05-05 00:43 -3.03861 -60.04466 270 ft 52 kts 90°
2026-05-05 00:43 -3.03863 -60.04141 269 ft 31 kts 90°
2026-05-05 00:44 -3.03863 -60.03918 268 ft 28 kts 90°
2026-05-05 00:44 -3.03843 -60.03787 268 ft 13 kts 39°
2026-05-05 00:44 -3.03751 -60.03771 269 ft 15 kts 347°
2026-05-05 00:44 -3.03683 -60.03841 269 ft 13 kts 292°
2026-05-05 00:45 -3.03658 -60.03937 268 ft 15 kts 284°
2026-05-05 00:45 -3.03631 -60.04045 268 ft 17 kts 283°
2026-05-05 00:45 -3.03617 -60.04102 268 ft 10 kts 285°
2026-05-05 00:45 -3.03586 -60.04201 268 ft 12 kts 288°
2026-05-05 00:46 -3.03545 -60.04274 268 ft 13 kts 304°
2026-05-05 00:46 -3.03481 -60.04337 268 ft 13 kts 321°
2026-05-05 00:46 -3.03394 -60.04375 268 ft 14 kts 344°
2026-05-05 00:46 -3.03344 -60.04394 268 ft 10 kts 320°
2026-05-05 00:47 -3.03339 -60.04461 268 ft 11 kts 258°
2026-05-05 00:47 -3.03349 -60.04529 268 ft 9 kts 278°
2026-05-05 00:47 -3.03332 -60.04540 268 ft 1 kts
2026-05-05 00:47 -3.03315 -60.04536 268 ft 4 kts 12°
2026-05-05 00:48 -3.03278 -60.04539 268 ft 6 kts 354°
2026-05-05 00:48 -3.03265 -60.04540 268 ft 0 kts 354°